Regional Weather Roundup
Issued by NWS Kansas City/Pleasant Hill, MO

Home | Current Version | Previous Version | Text Only | Print | Product List | Glossary On
Versions: 1 2 3 4 5 6 7 8 9 10 11 12 13 14 15 16 17 18 19 20 21 22 23 24 25 26 27 28 29 30 31 32 33 34 35 36 37 38 39 40 41 42 43 44 45 46 47 48 49 50
000
ASUS43 KEAX 190410
RWREAX

WEATHER ROUNDUP FOR EASTERN KANSAS AND NORTHWEST MISSOURI
NATIONAL WEATHER SERVICE KANSAS CITY/PLEASANT HILL MO
1100 PM CDT FRI APR 18 2014

KSZ040-057-103>105-MOZ028-029-037-043-190500-
...KANSAS CITY METROPOLITAN AREA...

CITY           SKY/WX    TMP DP  RH WIND       PRES   REMARKS
K.C. INTL      PTCLDY    54  41  61 SE8       30.18R
K.C. DOWNTOWN  CLEAR     61  42  49 SE9       30.17R
LEES SUMMIT    PTCLDY    57  41  55 SE5       30.19R
OLATHE - IXD   PTCLDY    56  41  57 SE8       30.18R
OLATHE - OJC   PTCLDY    56  40  55 SE6       30.18R
LAWRENCE       CLEAR     50  42  74 SE6       30.17R

$$

MOZ001>008-011>017-020>025-030>033-038>040-044>046-053-054-190500-
...NORTHERN AND CENTRAL MISSOURI...

CITY           SKY/WX    TMP DP  RH WIND       PRES   REMARKS
ST. JOSEPH     PTCLDY    55  41  59 SE3       30.16S
MOSBY          FAIR      50  45  81 CALM      30.19R
WHITEMAN AFB   CLEAR     56  41  56 SE5       30.19R
CLINTON        CLEAR     55  45  67 E5        30.20S
SEDALIA        CLEAR     56  42  59 SE6       30.21R
WARSAW         NOT AVBL
MARSHALL         N/A     57  45  62 E6        30.22R
CHILLICOTHE      N/A     56  42  59 SE3       30.21S
MOBERLY        CLEAR     54  39  58 E6        30.23R
KIRKSVILLE     CLEAR     52  35  52 E6        30.23R

$$

MOZ041-047>049-056>058-063>065-088>090-097-190500-
...EASTERN AND SOUTHERN MISSOURI...

CITY           SKY/WX    TMP DP  RH WIND       PRES   REMARKS
ST. LOUIS INTL CLEAR     57  40  52 E3        30.25S
SPIRIT OF STL  CLEAR     50  42  74 CALM      30.24R
COLUMBIA       CLEAR     55  41  59 E7        30.22R
JEFFERSON CITY CLEAR     52  43  71 S3        30.22R
MEXICO         CLEAR     50  43  76 E6        30.23S
HANNIBAL       CLEAR     57  25  28 E5        30.25R
ROLLA          CLEAR     54  40  59 E8        30.21S
LEBANON        CLEAR     59  37  44 E5        30.22R
OSAGE BEACH    CLEAR     59  36  41 E3        30.23R
SPRINGFIELD    CLEAR     56  41  57 SE6       30.19R
BRANSON        CLEAR     59  39  47 SE6       30.20S
NEVADA         CLEAR     57  41  54 E6        30.19S
JOPLIN         CLEAR     54  42  64 SE5       30.18R
WEST PLAINS    CLEAR     58  42  55 CALM      30.22R

$$

IAZ060-094-KSZ022-034>040-054-083-096-NEZ052-066-093-190500-
...KANSAS...SOUTHEAST NEBRASKA AND IOWA...

CITY           SKY/WX    TMP DP  RH WIND       PRES   REMARKS
TOPEKA         PTCLDY    55  42  61 SE5       30.16R
MANHATTAN      PTCLDY    57  41  55 S8        30.12S
EMPORIA        CLEAR     54  40  59 SE8       30.15R
CHANUTE        CLEAR     57  41  55 SE6       30.17S HAZE
WICHITA        PTCLDY    59  40  49 SE12      30.12R
OMAHA          CLOUDY    57  40  52 S13       30.09S
LINCOLN        MOCLDY    59  40  49 S17       30.08S
FALLS CITY     MOCLDY    55  41  59 S12       30.13S
LAMONI         CLEAR     55  40  56 SE9       30.18S
DES MOINES     PTCLDY    55  34  45 SE10      30.18S

$$




USA.gov is the U.S. government's official web portal to all federal, state and local government web resources and services.